Probability
0 0 0 0 0 0 0 0 0 0 0 0 0 0 0 0 0 0 0 0 0 0 0 0 0 0 0 0 0 0 0 0 0 0 0 0 0 0 0 0 0 0 0 0
0 0 0 0 0 0 0 0 0 0 0 0 0 0 0 0 0 0 0 0 0 0 0 0 0 0 0 0 0 0 0 0 0 0 0 0 0 0 0 0 0 0 0 0
0 0 0 0 0 0 0 0 0 0 0 0 0 0 0 0 0 0 0 0 0 0 0 0 0 0 0 0 0 0 0 0 0 0 0 0 0 0 0 0 0 0 0 0
0 0 0 0 0 0 0 0 0 0 0 0 0 0 0 0 0 0 0 0 0 0 0 0 0 0 0 0 0 0 0 0 0 0 0 0 0 0 0 0 0 0 0 0
0 0 0 0 0 0 0 0 0 0 0 0 0 0 0 0 0 0 0 0 0 0 0 0 0 0 0 0 0 0 0 0 0 0 0 0 0 0 0 0 0 0 0 0
0 0 0 0 0 0 0 0 0 0 0 0 0 0 0 0 0 0 0 0 0 0 0 0 0 0 0 0 0 0 0 0 0 0 0 0 0 0 0 0 0 0 0 0
0 0 0 0 0 0 0 0 0 0 0 0 0 0 0 0 0 0 0 0 0 0 0 0 0 0 0 0 0 0 0 0 0 0 0 0 0 0 0 0 0 0 0 0
0 0 0 0 0 0 0 0 0 0 0 0 0 0 0 0 0 0 0 0 0 0 0 0 0 0 0 0 0 0 0 0 0 0 0 0 0 0 0 0 0 0 0 0
0 0 0 0 0 0 0 0 0 0 0 0 0 0 0 0 0 0 0 0 0 0 0 0 0 0 0 0 0 0 0 0 0 0 0 0 0 0 0 0 0 0 0 0
0 0 0 0 0 0 0 0 0 0 0 0 0 0 0 0 0 0 0 0 0 0 0 0 0 0 0 0 0 0 0 0 0 0 0 0 0 0 0 0 0 0 0 0
0 0 0 0 0 0 0 0 0 0 0 0 0 0 0 0 0 0 0 0 0 0 0 0 0 0 0 0 0 0 0 0 0 0 0 0 0 0 0 0 0 0 0 0
0 0 0 0 0 0 0 0 0 0 0 0 0 0 0 0 0 0 0 0 0 0 0 0 0 0 0 0 0 0 0 0 0 0 0 0 0 0 0 0 0 0 0 0
0 0 0 0 0 0 0 0 0 0 0 0 0 0 0 0 0 0 0 0 0 0 0 0 0 0 0 0 0 0 0 0 0 0 0 0 0 0 0 0 0 0 0 0
0 0 0 0 0 0 0 0 0 0 0 0 0 0 0 0 0 0 0 0 0 0 0 0 0 0 0 0 0 0 0 0 0 0 0 0 0 0 0 0 0 0 0 0
0 0 0 0 0 0 0 0 0 0 0 0 0 0 0 0 0 0 0 0 0 0 0 0 0 0 0 0 0 0 0 0 0 0 0 0 0 0 0 0 0 0 0 0
0 0 0 0 0 0 0 0 0 0 0 0 0 0 0 0 0 0 0 0 0 0 0 0 0 0 0 0 0 0 0 0 0 0 0 0 0 0 0 0 0 0 0 0
0 0 0 0 0 0 0 0 0 0 0 0 0 0 0 0 0 0 0 0 0 0 0 0 0 0 0 0 0 0 0 0 0 0 0 0 0 0 0 0 0 0 0 0
0 0 0 0 0 0 0 0 0 0 0 0 0 0 0 0 0 0 0 0 0 0 0 0 0 0 0 0 0 0 0 0 0 0 0 0 0 0 0 0 0 0 0 0
0 0 0 0 0 0 0 0 0 0 0 0 0 0 0 0 0 0 0 0 0 0 0 0 0 0 0 0 0 0 0 0 0 0 0 0 0 0 0 0 0 0 0 0
0 0 0 0 0 0 0 0 0 0 0 0 0 0 0 0 0 0 0 0 0 0 0 0 0 0 0 0 0 0 0 0 0 0 0 0 0 0 0 0 0 0 0 0
0 0 0 0 0 0 0 0 0 0 0 0 0 0 0 0 0 0 0 0 0 0 0 0 0 0 0 0 0 0 0 0 0 0 0 0 0 0 0 0 0 0 0 0
0 0 0 0 0 0 0 0 0 0 0 0 0 0 0 0 0 0 0 0 0 0 0 0 0 0 0 0 0 0 0 0 0 0 0 0 0 0 0 0 0 0 0 0
0 0 0 0 0 0 0 0 0 0 0 0 0 0 0 0 0 0 0 0 0 0 0 0 0 0 0 0 0 0 0 0 0 0 0 0 0 0 0 0 0 0 0 0
0 0 0 0 0 0 0 0 0 0 0 0 0 0 0 0 0 0 0 0 0 0 0 0 0 0 0 0 0 0 0 0 0 0 0 0 0 0 0 0 0 0 0 0
0 0 0 0 0 0 0 0 0 0 0 0 0 0 0 0 0 0 0 0 0 0 0 0 0 0 0 0 0 0 0 0 0 0 0 0 0 0 0 0 0 0 0 0
0 0 0 0 0 0 0 0 0 0 0 0 0 0 0 0 0 0 0 0 0 0 0 0 0 0 0 0 0 0 0 0 0 0 0 0 0 0 0 0 0 0 0 0
0 0 0 0 0 0 0 0 0 0 0 0 0 0 0 0 0 0 0 0 0 0 0 0 0 0 0 0 0 0 0 0 0 0 0 0 0 0 0 0 0 0 0 0
Height
5708 5710 5713 5716 5719 5720 5722 5724 5725 5728 5728 5728 5725 5724 5725 5724 5723 5722 5721 5719 5716 5713 5711 5708 5705 5701 5698 5695 5691 5688 5684 5680 5676 5672 5668 5663 5658 5653 5647 5641 5635 5628 5621 5613
5701 5704 5706 5708 5711 5713 5715 5717 5718 5719 5720 5720 5717 5716 5715 5715 5713 5712 5710 5708 5705 5702 5699 5696 5693 5690 5686 5683 5679 5676 5672 5668 5664 5659 5654 5649 5644 5638 5632 5626 5619 5611 5604 5595
5695 5697 5698 5701 5706 5707 5708 5709 5710 5710 5712 5710 5709 5708 5706 5704 5703 5701 5699 5697 5694 5691 5688 5685 5682 5678 5675 5671 5668 5664 5660 5655 5651 5646 5641 5635 5629 5623 5617 5610 5603 5595 5586 5577
5687 5690 5690 5698 5698 5699 5700 5701 5701 5701 5701 5700 5700 5699 5697 5695 5693 5690 5688 5685 5682 5679 5676 5673 5670 5667 5663 5659 5655 5652 5647 5643 5638 5633 5627 5621 5615 5608 5601 5594 5586 5577 5568 5559
5679 5680 5682 5688 5690 5691 5691 5692 5694 5692 5691 5690 5690 5688 5687 5684 5682 5679 5677 5674 5671 5668 5665 5662 5658 5655 5651 5647 5643 5639 5634 5629 5624 5618 5613 5606 5600 5592 5585 5577 5568 5559 5550 5539
5671 5672 5674 5680 5681 5682 5682 5683 5685 5683 5681 5680 5679 5678 5677 5673 5670 5668 5665 5662 5659 5656 5653 5650 5646 5643 5639 5635 5631 5626 5621 5616 5610 5604 5598 5591 5583 5576 5567 5558 5550 5541 5531 5520
5663 5663 5665 5670 5671 5672 5674 5675 5674 5672 5671 5670 5669 5667 5665 5662 5659 5656 5653 5651 5648 5645 5641 5638 5634 5631 5627 5622 5618 5613 5608 5602 5596 5589 5582 5574 5567 5558 5549 5541 5532 5522 5513 5503
5655 5655 5660 5662 5662 5663 5663 5663 5662 5661 5660 5659 5658 5655 5653 5650 5647 5645 5642 5639 5636 5633 5629 5626 5622 5618 5614 5609 5604 5599 5594 5587 5581 5574 5566 5558 5549 5541 5531 5521 5512 5502 5492 5483
5648 5651 5651 5652 5652 5652 5652 5652 5651 5650 5649 5648 5646 5644 5641 5639 5636 5633 5630 5627 5624 5621 5617 5613 5609 5605 5600 5595 5590 5585 5579 5572 5565 5558 5549 5541 5532 5522 5513 5502 5491 5481 5471 5461
5639 5640 5642 5642 5642 5642 5641 5641 5640 5639 5638 5636 5635 5632 5630 5628 5625 5622 5619 5616 5612 5609 5605 5601 5596 5591 5586 5581 5575 5569 5563 5556 5549 5541 5533 5524 5514 5504 5493 5482 5471 5460 5449 5439
5630 5631 5632 5633 5632 5632 5631 5630 5629 5628 5627 5625 5623 5621 5619 5616 5613 5610 5607 5604 5600 5596 5592 5588 5583 5578 5572 5566 5560 5554 5547 5540 5532 5524 5515 5506 5497 5486 5474 5463 5449 5438 5428 5417
5621 5623 5623 5623 5623 5622 5621 5620 5619 5617 5615 5614 5612 5609 5607 5604 5601 5598 5595 5591 5587 5583 5579 5574 5569 5564 5557 5551 5545 5538 5531 5523 5515 5506 5497 5487 5477 5469 5457 5444 5432 5419 5407 5397
5612 5612 5612 5612 5612 5612 5611 5609 5608 5606 5604 5602 5600 5597 5595 5592 5589 5586 5582 5578 5575 5570 5566 5560 5555 5549 5543 5536 5529 5522 5514 5505 5496 5487 5477 5467 5457 5446 5439 5430 5417 5403 5391 5381
5601 5601 5602 5602 5601 5601 5600 5598 5597 5595 5593 5591 5588 5586 5583 5580 5577 5573 5570 5566 5562 5557 5552 5546 5541 5534 5527 5520 5513 5504 5496 5487 5477 5467 5457 5446 5436 5425 5415 5406 5400 5391 5379 5368
5591 5591 5591 5591 5590 5590 5588 5587 5585 5583 5581 5579 5576 5574 5571 5568 5565 5561 5557 5553 5548 5544 5538 5532 5526 5519 5511 5503 5495 5487 5478 5468 5457 5447 5437 5426 5415 5405 5395 5386 5378 5371 5364 5357
5580 5580 5580 5580 5579 5578 5577 5575 5574 5572 5570 5567 5565 5562 5559 5556 5553 5549 5545 5540 5535 5530 5523 5517 5510 5502 5494 5485 5477 5468 5459 5448 5437 5426 5416 5406 5395 5385 5376 5368 5361 5354 5348 5343
5570 5570 5570 5569 5568 5567 5566 5564 5563 5561 5558 5556 5554 5551 5548 5545 5541 5537 5532 5527 5521 5515 5507 5500 5493 5485 5476 5466 5457 5448 5439 5428 5417 5406 5395 5385 5376 5367 5359 5352 5346 5340 5335 5330
5559 5559 5559 5558 5557 5556 5555 5553 5551 5550 5548 5545 5542 5539 5536 5532 5528 5524 5519 5513 5507 5500 5491 5483 5475 5467 5457 5446 5436 5427 5417 5407 5397 5386 5376 5367 5358 5350 5343 5337 5331 5327 5323 5319
5548 5548 5548 5547 5547 5545 5544 5543 5541 5539 5537 5534 5531 5528 5524 5519 5515 5510 5504 5498 5490 5483 5476 5466 5457 5447 5437 5427 5416 5406 5396 5386 5377 5367 5358 5349 5341 5335 5328 5323 5319 5314 5311 5308
5539 5539 5538 5538 5537 5535 5534 5532 5530 5528 5525 5522 5519 5515 5511 5506 5500 5495 5489 5482 5472 5463 5456 5447 5438 5427 5417 5407 5396 5386 5376 5367 5358 5349 5341 5333 5326 5320 5315 5311 5307 5303 5300 5298
5530 5530 5529 5528 5527 5525 5524 5522 5519 5517 5513 5510 5506 5501 5497 5491 5485 5478 5471 5464 5456 5444 5436 5427 5416 5406 5396 5386 5377 5367 5357 5348 5340 5332 5325 5318 5312 5308 5303 5299 5296 5293 5290 5288
5521 5520 5519 5518 5517 5515 5513 5510 5508 5505 5501 5496 5492 5486 5481 5475 5468 5461 5453 5443 5435 5425 5416 5407 5396 5385 5375 5366 5358 5349 5340 5331 5324 5317 5311 5305 5300 5296 5292 5289 5286 5283 5280 5278
5511 5510 5509 5508 5506 5504 5501 5498 5495 5492 5487 5482 5476 5470 5463 5457 5449 5441 5435 5425 5414 5405 5395 5386 5375 5365 5356 5347 5339 5331 5324 5316 5309 5303 5298 5294 5289 5286 5282 5279 5276 5274 5271 5268
5501 5500 5499 5497 5495 5492 5489 5486 5482 5477 5472 5466 5459 5452 5444 5437 5431 5421 5411 5403 5394 5384 5375 5366 5356 5346 5338 5330 5323 5316 5309 5302 5297 5291 5287 5283 5279 5276 5273 5270 5267 5265 5262 5259
5491 5489 5487 5485 5482 5479 5476 5472 5467 5461 5456 5450 5442 5433 5425 5416 5409 5401 5392 5383 5373 5363 5355 5347 5337 5329 5321 5314 5308 5301 5295 5289 5284 5280 5276 5272 5269 5266 5263 5261 5258 5256 5253 5251
5479 5477 5475 5472 5469 5465 5461 5456 5451 5444 5437 5431 5424 5415 5406 5397 5388 5379 5371 5363 5354 5345 5336 5328 5321 5313 5306 5300 5294 5288 5282 5277 5273 5269 5265 5262 5259 5257 5254 5252 5250 5247 5245 5243
5467 5464 5461 5458 5453 5449 5444 5438 5432 5426 5418 5410 5404 5396 5386 5378 5369 5360 5352 5344 5336 5328 5320 5313 5306 5299 5292 5286 5280 5275 5270 5266 5262 5258 5255 5252 5250 5248 5246 5244 5241 5239 5237 5235
Wind_Speed
31 32 30 29 28 28 29 29 29 28 28 28 32 34 33 34 35 36 37 38 40 41 42 43 44 45 45 46 46 47 47 48 49 50 51 52 54 55 57 59 61 63 65 67
32 32 32 31 30 29 29 29 30 30 30 29 34 36 36 37 38 39 39 41 42 43 44 45 45 46 46 47 47 47 48 49 50 51 53 54 56 57 59 61 64 66 68 70
33 33 34 34 30 30 30 30 32 33 31 33 35 36 37 39 40 41 42 43 44 44 45 46 46 46 46 47 47 48 49 50 51 53 55 56 58 60 62 64 66 68 71 73
35 35 38 32 30 30 31 31 32 33 33 35 35 36 38 40 41 43 43 44 44 45 45 45 46 46 47 47 48 49 50 51 53 55 57 58 60 63 65 67 69 71 73 75
37 37 36 33 32 31 32 32 31 33 35 37 37 39 39 41 42 43 44 44 44 44 45 45 46 46 47 48 49 50 52 54 55 57 59 61 63 65 67 69 71 73 75 77
38 39 38 34 33 33 34 34 32 34 36 38 38 39 40 41 43 43 43 43 44 44 45 46 46 47 48 49 50 52 53 55 57 59 61 63 66 68 70 72 73 75 76 78
38 39 38 36 34 34 35 34 34 35 36 37 39 40 41 42 42 43 43 43 44 44 45 46 47 48 49 50 52 54 55 57 59 61 64 66 68 70 72 74 75 77 78 79
38 39 37 34 35 36 37 37 37 37 37 38 39 40 41 42 42 43 43 44 44 45 45 46 48 49 50 52 54 56 57 59 61 64 66 68 70 72 74 76 77 79 80 79
36 36 36 36 36 36 37 38 38 38 39 39 40 41 41 41 42 43 44 44 45 45 46 47 49 50 52 54 56 57 59 61 63 66 68 70 72 74 76 78 80 80 81 80
35 35 35 35 36 38 39 39 39 40 41 41 41 41 41 42 43 44 44 45 46 46 47 49 50 52 54 56 58 59 61 63 66 68 70 72 74 76 78 80 81 81 81 79
34 35 35 35 37 38 39 40 40 41 41 41 42 42 42 43 44 44 45 46 47 48 49 50 52 54 56 58 59 61 64 66 68 71 73 75 76 78 80 81 82 81 79 76
34 35 36 37 37 39 40 41 41 42 42 42 42 42 43 44 45 45 46 47 47 49 50 52 54 55 57 60 62 64 66 69 71 73 75 78 79 79 80 80 79 77 74 70
35 36 38 38 38 39 40 41 42 42 42 43 43 44 44 45 45 45 46 47 48 50 52 53 55 57 59 62 64 67 69 72 74 76 78 80 81 82 80 77 74 71 67 63
37 38 39 39 39 40 41 42 42 42 43 43 44 44 45 45 45 45 46 48 49 51 53 55 57 59 62 65 67 70 72 75 77 79 81 82 82 82 80 76 70 64 59 55
38 39 39 40 41 42 42 43 43 43 43 44 44 44 44 44 44 45 47 49 51 52 55 57 60 62 65 68 70 73 76 78 80 82 82 82 81 79 75 70 65 59 52 48
39 39 40 41 42 42 43 43 43 43 43 43 42 42 43 43 45 47 49 51 53 55 57 60 62 65 69 72 75 77 79 81 82 83 82 81 78 74 69 64 58 53 47 44
39 40 40 41 42 42 42 42 41 41 40 40 41 41 43 44 46 48 50 53 55 57 60 64 67 70 73 76 79 81 82 82 83 82 80 77 73 68 62 57 53 47 43 40
38 39 39 38 38 38 38 37 37 37 38 39 41 42 44 46 48 50 53 55 58 61 65 69 72 74 77 80 81 82 83 82 81 78 75 71 66 62 56 52 47 43 39 36
34 34 34 34 34 34 35 35 36 37 39 41 42 44 46 48 51 53 56 59 63 66 69 72 75 78 79 81 82 82 81 79 76 73 70 65 60 55 51 47 43 39 36 34
32 32 33 33 33 34 35 36 37 39 41 43 44 46 49 52 55 58 61 64 68 71 74 76 78 79 80 81 81 80 78 75 71 68 64 59 54 49 45 42 39 36 34 33
31 32 32 33 34 35 36 38 39 41 43 45 48 51 53 56 60 63 66 68 71 75 77 78 79 80 80 80 78 76 73 69 65 61 57 52 47 43 40 37 35 34 32 32
31 32 33 34 35 36 38 40 42 44 47 49 53 56 58 61 64 67 70 73 75 77 78 79 79 79 78 76 73 70 66 63 59 54 49 45 42 39 36 34 33 32 31 31
32 33 34 36 37 39 41 43 45 48 51 54 57 60 63 66 69 72 73 75 77 78 78 78 77 76 74 70 67 64 60 56 52 48 44 41 38 36 34 32 31 30 30 30
34 35 37 38 40 42 44 47 49 52 55 58 62 65 68 71 72 74 76 76 77 77 76 74 73 70 67 64 61 58 54 50 47 44 41 38 36 35 33 31 30 29 29 29
36 38 39 41 44 46 48 51 54 57 60 63 66 69 72 74 75 75 75 75 75 74 72 69 66 63 60 58 55 52 49 47 44 41 38 36 34 33 31 30 29 28 28 27
39 41 43 45 48 50 53 56 59 62 65 67 69 71 73 74 74 74 73 72 71 69 66 62 59 57 55 53 50 48 45 43 40 38 36 34 32 30 29 28 27 27 27 26
42 44 47 50 52 55 58 61 64 66 69 70 71 72 72 72 71 71 70 68 65 62 59 56 54 52 50 48 46 43 41 39 37 35 33 31 30 28 27 26 26 25 25 24
Wind_Direction
238 242 244 243 244 247 252 258 262 266 268 274 277 278 280 281 283 284 286 287 288 289 289 290 291 291 292 292 292 292 292 293 294 295 296 297 297 298 299 300 301 302 303 304
238 242 246 247 248 251 256 260 265 267 270 273 275 280 283 283 284 286 287 287 288 289 289 290 291 291 291 291 292 292 293 294 295 296 297 298 299 300 301 302 303 304 304 305
244 246 250 252 255 258 260 263 267 270 273 274 276 280 282 284 285 287 288 288 289 289 289 290 290 290 291 291 292 292 293 294 295 297 298 299 300 301 302 303 304 304 305 306
248 250 254 259 258 259 262 265 268 272 275 277 279 280 281 283 285 286 287 288 288 289 289 289 289 290 291 291 292 293 294 295 296 298 299 300 301 302 303 304 305 305 306 307
251 254 259 259 261 264 267 267 270 274 276 277 279 281 283 285 285 286 287 287 288 288 288 289 290 291 291 292 293 294 295 296 297 298 299 301 302 303 304 305 306 307 308 308
254 258 262 265 265 265 268 269 271 273 275 277 279 281 284 284 285 286 287 287 288 289 289 290 290 291 292 293 293 294 296 297 298 299 301 302 303 304 305 306 307 308 309 309
257 261 263 266 269 271 272 275 275 275 276 278 279 282 284 285 286 286 287 288 289 289 290 290 291 292 292 293 294 295 296 298 299 300 302 303 304 306 307 308 308 309 310 310
258 262 267 270 272 273 276 276 278 279 280 281 282 284 285 286 287 288 288 289 290 290 290 291 292 292 293 294 295 296 298 299 300 302 303 305 306 307 308 309 309 310 310 311
260 264 267 269 272 274 276 278 279 281 282 283 285 286 287 287 288 289 289 290 290 290 291 291 292 293 293 295 296 297 299 300 302 303 305 306 307 308 309 310 310 311 311 311
260 263 266 270 273 275 277 279 281 283 284 285 286 287 288 288 289 289 290 290 290 290 291 291 292 294 295 296 297 299 301 302 304 305 306 308 309 310 310 311 311 311 311 311
261 264 267 270 274 276 278 280 283 284 285 286 286 287 288 289 290 290 290 290 291 291 292 292 294 295 297 298 300 301 303 304 305 307 308 309 309 310 311 311 312 312 311 311
261 264 268 271 273 276 278 280 283 284 286 287 287 288 289 290 290 291 291 291 291 292 293 294 296 298 299 300 302 303 304 306 307 308 309 309 310 310 311 312 312 312 311 310
264 267 269 272 274 276 279 282 284 285 285 286 287 288 289 290 291 291 291 292 292 294 295 297 298 300 301 302 303 305 306 307 308 309 309 310 310 311 311 311 311 311 309 308
266 268 270 273 275 277 280 282 284 284 285 286 287 288 289 291 291 291 292 293 295 296 298 299 300 301 302 304 305 306 307 308 309 309 310 310 311 311 311 311 311 310 308 306
266 268 271 274 276 278 280 282 283 284 284 286 287 288 290 290 291 292 294 295 297 299 300 301 302 303 304 305 306 307 308 308 309 309 310 310 311 311 311 311 310 309 307 305
267 270 273 275 277 279 280 281 282 283 284 286 287 288 289 291 292 294 296 297 299 300 301 302 303 304 305 306 307 308 308 309 309 309 310 310 310 310 310 310 309 308 306 304
268 271 274 276 278 279 279 280 282 283 285 286 288 289 291 293 295 296 298 299 301 302 302 303 304 305 306 307 307 308 308 309 309 309 310 310 310 309 309 308 308 306 305 303
271 273 274 276 277 278 279 281 283 284 286 287 289 291 293 295 296 298 299 300 302 303 304 304 305 306 306 307 307 308 309 309 309 309 310 309 309 308 307 307 306 305 303 302
272 273 274 276 277 279 281 283 284 286 287 289 292 293 295 296 298 299 300 302 303 303 304 305 306 306 306 307 308 308 309 309 309 309 309 309 308 307 306 305 304 303 301 301
272 274 276 277 279 281 282 284 286 288 290 292 293 294 296 297 299 300 302 303 304 304 305 306 306 306 307 307 308 308 309 309 309 309 309 308 307 305 304 303 302 301 300 301
274 275 277 279 280 282 284 286 288 290 291 293 294 296 297 299 300 302 303 304 304 305 306 306 306 307 307 307 308 308 308 308 308 308 308 307 306 305 303 302 301 300 299 300
275 276 278 280 282 284 286 288 290 292 293 294 296 297 299 300 302 303 304 305 305 305 306 306 306 307 307 307 308 308 308 308 308 308 307 306 305 304 302 301 300 299 299 301
275 277 279 281 284 286 288 290 292 293 295 297 299 300 301 302 303 304 304 305 305 306 306 307 306 307 307 307 308 308 309 308 308 307 306 305 304 303 302 301 300 299 300 301
276 279 281 284 286 288 291 293 294 296 298 300 301 302 303 303 304 304 305 305 306 306 306 307 306 306 307 307 308 308 308 308 307 306 304 303 302 301 301 300 299 299 300 301
279 281 284 287 289 291 293 295 297 298 300 301 302 303 303 304 304 305 305 306 306 306 307 307 306 306 306 307 307 307 306 306 305 304 303 302 301 300 299 299 299 299 300 301
282 285 287 289 291 293 295 297 299 300 301 302 302 303 303 304 304 305 306 306 306 307 307 307 307 306 306 306 306 306 305 304 303 303 302 301 300 299 298 298 299 299 300 301
285 288 290 292 294 296 298 299 300 301 301 302 303 303 304 304 305 305 306 306 307 307 307 307 307 307 307 306 306 305 304 304 302 301 300 299 298 297 297 298 298 299 300 301